Torna al catalogo

SOLRAD 3/INJUN 1

AttivoScienzaLEO
NORAD 117·PAYLOAD·🇺🇸 United States

Lanciato Jun 29, 1961 da Cape Canaveral Space Force Station

Loading…

Prossimi Passaggi (prossime 24 ore)

TLE

AggiornatoSource: Space-Track

Epoca: Sep 14, 2026, 22:40 UTC

1 00117U 61015B   26257.94448211 -.00000016  00000-0  47520-4 0  9997
2 00117  66.8121 146.3172 0083357 237.6917 121.6070 13.90198462306537

Traccia SOLRAD 3/INJUN 1 in tempo reale con AllMySat

Download on the App Store